�������l�o���
Date,Time,MP-1(��Sv/h),MP-2(��Sv/h),MP-3(��Sv/h),MP-4(��Sv/h),MP-5(��Sv/h),MP-6(��Sv/h),MP-7(��Sv/h),MP-8(��Sv/h),����,����(m/s),���J
2023/12/31,00:00,0.523,0.793,0.494,0.999,0.712,0.318,0.566,0.530,�k�k��,5.5,��
2023/12/31,00:10,0.523,0.792,0.494,1.001,0.713,0.318,0.567,0.530,�k�k��,6.2,��
2023/12/31,00:20,0.523,0.791,0.492,0.999,0.714,0.317,0.565,0.530,�k�k��,6.5,��
2023/12/31,00:30,0.523,0.792,0.495,1.000,0.714,0.318,0.566,0.531,�k�k��,6.0,��
2023/12/31,00:40,0.523,0.792,0.495,0.998,0.712,0.316,0.565,0.531,�k�k��,6.0,��
2023/12/31,00:50,0.523,0.795,0.493,1.001,0.715,0.320,0.565,0.530,�k�k��,6.4,��
2023/12/31,01:00,0.522,0.793,0.495,1.001,0.713,0.317,0.567,0.529,�k�k��,5.3,��
2023/12/31,01:10,0.521,0.793,0.494,1.000,0.715,0.317,0.566,0.531,�k�k��,5.7,��
2023/12/31,01:20,0.523,0.792,0.494,1.002,0.714,0.317,0.567,0.531,�k�k��,5.9,�L
2023/12/31,01:30,0.523,0.791,0.493,1.001,0.714,0.318,0.566,0.530,�k�k��,7.1,��
2023/12/31,01:40,0.521,0.793,0.493,1.000,0.713,0.319,0.567,0.531,�k�k��,6.2,��
2023/12/31,01:50,0.523,0.793,0.494,1.000,0.712,0.318,0.565,0.529,�k�k��,4.7,��
2023/12/31,02:00,0.521,0.791,0.493,1.001,0.711,0.317,0.566,0.531,�k,5.5,��
2023/12/31,02:10,0.522,0.792,0.493,1.001,0.713,0.318,0.568,0.529,�k�k��,3.9,��
2023/12/31,02:20,0.523,0.794,0.493,1.000,0.714,0.318,0.566,0.530,�k�k��,4.4,��
2023/12/31,02:30,0.522,0.791,0.494,1.001,0.714,0.319,0.565,0.530,�k�k��,4.2,��
2023/12/31,02:40,0.522,0.792,0.495,0.998,0.714,0.318,0.566,0.530,�k�k��,4.9,��
2023/12/31,02:50,0.522,0.792,0.495,1.000,0.712,0.319,0.568,0.530,�k�k��,4.4,��
2023/12/31,03:00,0.523,0.791,0.494,1.000,0.713,0.317,0.566,0.529,�k�k��,5.8,��
2023/12/31,03:10,0.521,0.793,0.493,1.000,0.713,0.319,0.567,0.530,�k�k��,6.4,��
2023/12/31,03:20,0.524,0.791,0.493,1.000,0.713,0.316,0.567,0.529,�k�k��,6.7,��
2023/12/31,03:30,0.523,0.791,0.493,1.001,0.715,0.319,0.567,0.529,�k�k��,6.5,��
2023/12/31,03:40,0.524,0.791,0.495,0.999,0.715,0.317,0.565,0.528,�k�k��,6.7,��
2023/12/31,03:50,0.524,0.792,0.495,1.000,0.713,0.317,0.566,0.530,�k�k��,6.9,��
2023/12/31,04:00,0.524,0.791,0.494,0.999,0.714,0.317,0.566,0.530,�k�k��,6.5,��
2023/12/31,04:10,0.522,0.792,0.494,1.001,0.713,0.319,0.567,0.531,�k,6.3,��
2023/12/31,04:20,0.525,0.792,0.495,0.999,0.714,0.317,0.567,0.529,�k,6.7,��
2023/12/31,04:30,0.523,0.791,0.494,1.002,0.714,0.318,0.568,0.529,�k,6.8,��
2023/12/31,04:40,0.521,0.792,0.494,1.001,0.715,0.317,0.567,0.530,�k,6.8,��
2023/12/31,04:50,0.524,0.791,0.494,1.001,0.714,0.318,0.568,0.529,�k,6.4,��
2023/12/31,05:00,0.524,0.793,0.494,0.999,0.713,0.318,0.569,0.531,�k�k��,5.7,��
2023/12/31,05:10,0.524,0.790,0.494,0.999,0.713,0.318,0.568,0.530,�k�k��,5.5,��
2023/12/31,05:20,0.522,0.791,0.493,1.001,0.712,0.318,0.568,0.531,�k�k��,5.4,��
2023/12/31,05:30,0.521,0.791,0.494,1.000,0.715,0.317,0.565,0.529,�k,5.3,��
2023/12/31,05:40,0.522,0.792,0.495,1.000,0.714,0.319,0.568,0.531,�k,5.2,��
2023/12/31,05:50,0.524,0.791,0.494,0.999,0.712,0.319,0.568,0.530,�k,3.6,��
2023/12/31,06:00,0.521,0.792,0.494,1.000,0.713,0.317,0.569,0.530,�k,3.3,��
2023/12/31,06:10,0.523,0.792,0.493,1.001,0.713,0.319,0.567,0.529,�k�k��,2.8,��
2023/12/31,06:20,0.523,0.791,0.497,1.000,0.715,0.320,0.568,0.531,�k�k��,3.2,��
2023/12/31,06:30,0.523,0.790,0.493,1.001,0.714,0.318,0.567,0.529,�k�k��,2.5,��
2023/12/31,06:40,0.524,0.793,0.495,1.001,0.713,0.317,0.568,0.530,�k,2.8,��
2023/12/31,06:50,0.521,0.790,0.494,1.001,0.714,0.318,0.569,0.530,�k,2.8,��
2023/12/31,07:00,0.523,0.790,0.495,0.999,0.715,0.320,0.569,0.530,�k�k��,3.2,��
2023/12/31,07:10,0.523,0.792,0.494,1.002,0.714,0.319,0.567,0.529,�k�k��,3.0,��
2023/12/31,07:20,0.525,0.792,0.494,1.001,0.715,0.318,0.568,0.531,�k��,2.0,��
2023/12/31,07:30,0.525,0.794,0.496,1.003,0.715,0.319,0.567,0.531,���k��,1.5,��
2023/12/31,07:40,0.524,0.790,0.495,1.000,0.714,0.317,0.570,0.529,�k�k��,2.3,��
2023/12/31,07:50,0.523,0.791,0.494,1.003,0.713,0.320,0.568,0.530,�k��,2.6,��
2023/12/31,08:00,0.523,0.792,0.496,0.999,0.714,0.319,0.570,0.530,�k��,2.3,��
2023/12/31,08:10,0.524,0.793,0.496,1.001,0.716,0.320,0.566,0.530,�k�k��,1.1,��
2023/12/31,08:20,0.526,0.794,0.497,1.002,0.716,0.320,0.567,0.532,�k��,0.9,��
2023/12/31,08:30,0.526,0.793,0.497,1.001,0.715,0.319,0.566,0.530,���쐼,0.9,��
2023/12/31,08:40,0.527,0.794,0.496,1.002,0.715,0.320,0.567,0.530,-,CALM,��
2023/12/31,08:50,0.524,0.795,0.496,1.002,0.714,0.319,0.568,0.530,��,0.6,��
2023/12/31,09:00,0.524,0.794,0.497,1.000,0.716,0.318,0.567,0.530,�k�k��,1.2,��
2023/12/31,09:10,0.524,0.793,0.496,1.002,0.714,0.319,0.569,0.532,�k,3.5,��
2023/12/31,09:20,0.526,0.794,0.496,0.999,0.716,0.319,0.569,0.532,�k�k��,3.2,��
2023/12/31,09:30,0.524,0.793,0.495,1.001,0.715,0.319,0.567,0.532,�k�k��,1.5,��
2023/12/31,09:40,0.524,0.792,0.493,1.001,0.716,0.320,0.568,0.532,�k�k��,1.5,��
2023/12/31,09:50,0.524,0.792,0.495,1.002,0.716,0.319,0.568,0.530,�k�k��,2.6,��
2023/12/31,10:00,0.523,0.793,0.495,1.002,0.716,0.319,0.569,0.531,�k,2.0,��
2023/12/31,10:10,0.524,0.795,0.495,1.002,0.715,0.320,0.567,0.532,�k,2.3,��
2023/12/31,10:20,0.525,0.795,0.496,1.002,0.716,0.320,0.567,0.532,�k,2.2,��
2023/12/31,10:30,0.527,0.795,0.497,1.000,0.716,0.320,0.569,0.532,�k�k��,2.6,��
2023/12/31,10:40,0.526,0.793,0.497,1.001,0.713,0.319,0.567,0.531,�k��,3.0,��
2023/12/31,10:50,0.526,0.792,0.495,1.002,0.718,0.321,0.567,0.532,�k�k��,3.0,��
2023/12/31,11:00,0.525,0.794,0.496,1.002,0.717,0.320,0.569,0.531,�k�k��,1.8,��
2023/12/31,11:10,0.528,0.793,0.497,1.001,0.717,0.319,0.567,0.532,�k�k��,2.0,��
2023/12/31,11:20,0.525,0.792,0.496,1.001,0.714,0.321,0.567,0.532,�k,2.0,��
2023/12/31,11:30,0.526,0.795,0.496,1.000,0.717,0.319,0.568,0.532,�k,2.5,��
2023/12/31,11:40,0.526,0.792,0.497,1.002,0.716,0.319,0.567,0.532,�k�k��,2.0,��
2023/12/31,11:50,0.526,0.793,0.496,1.000,0.715,0.320,0.568,0.533,�k�k��,1.9,��
2023/12/31,12:00,0.526,0.793,0.496,1.002,0.717,0.321,0.566,0.533,�k��,2.3,��
2023/12/31,12:10,0.525,0.795,0.498,1.000,0.715,0.319,0.569,0.530,�k��,2.3,��
2023/12/31,12:20,0.526,0.794,0.497,1.004,0.714,0.321,0.568,0.532,�k�k��,3.0,��
2023/12/31,12:30,0.526,0.794,0.499,1.004,0.713,0.320,0.568,0.532,�k�k��,2.3,��
2023/12/31,12:40,0.524,0.793,0.495,1.000,0.714,0.321,0.567,0.532,�k��,2.2,��
2023/12/31,12:50,0.525,0.793,0.498,1.003,0.715,0.319,0.567,0.532,�k��,1.9,��
2023/12/31,13:00,0.525,0.791,0.497,1.002,0.713,0.319,0.568,0.531,���k��,1.4,��
2023/12/31,13:10,0.524,0.791,0.497,1.002,0.714,0.320,0.568,0.533,���쓌,1.2,��
2023/12/31,13:20,0.522,0.791,0.496,1.003,0.714,0.320,0.570,0.532,���k��,1.5,��
2023/12/31,13:30,0.525,0.792,0.497,0.999,0.713,0.321,0.568,0.531,���k��,1.9,��
2023/12/31,13:40,0.523,0.792,0.496,1.002,0.712,0.320,0.568,0.530,���쓌,1.7,��
2023/12/31,13:50,0.522,0.792,0.497,1.001,0.712,0.320,0.568,0.531,��,1.5,��
2023/12/31,14:00,0.524,0.793,0.495,1.003,0.712,0.320,0.567,0.529,�쓌,2.2,��
2023/12/31,14:10,0.523,0.792,0.495,1.000,0.714,0.321,0.568,0.531,���쓌,2.0,��
2023/12/31,14:20,0.523,0.790,0.495,1.003,0.716,0.321,0.567,0.530,���쓌,1.2,��
2023/12/31,14:30,0.523,0.790,0.495,1.001,0.717,0.321,0.568,0.529,���k��,1.8,��
2023/12/31,14:40,0.521,0.790,0.495,1.001,0.716,0.321,0.568,0.530,��,0.9,��
2023/12/31,14:50,0.521,0.791,0.493,1.002,0.718,0.320,0.567,0.532,�k�k��,0.6,��
2023/12/31,15:00,0.523,0.792,0.495,1.003,0.716,0.320,0.568,0.532,�k,0.6,��
2023/12/31,15:10,0.522,0.794,0.496,1.001,0.717,0.321,0.568,0.531,�k��,0.9,��
2023/12/31,15:20,0.522,0.793,0.496,1.003,0.716,0.320,0.569,0.531,�k,1.2,��
2023/12/31,15:30,0.524,0.794,0.497,1.001,0.715,0.320,0.569,0.532,�k�k��,1.7,��
2023/12/31,15:40,0.524,0.791,0.497,1.003,0.719,0.321,0.569,0.533,�k�k��,2.3,��
2023/12/31,15:50,0.524,0.792,0.495,1.002,0.716,0.320,0.568,0.533,�k�k��,2.0,��
2023/12/31,16:00,0.526,0.793,0.496,1.001,0.716,0.321,0.568,0.531,�k�k��,2.3,��
2023/12/31,16:10,0.524,0.793,0.498,1.001,0.716,0.321,0.570,0.532,�k��,1.9,��
2023/12/31,16:20,0.525,0.794,0.496,1.002,0.718,0.320,0.567,0.531,�k��,1.1,��
2023/12/31,16:30,0.524,0.793,0.499,1.001,0.717,0.321,0.569,0.532,�k��,1.2,��
2023/12/31,16:40,0.525,0.794,0.496,1.001,0.716,0.320,0.569,0.532,��,0.8,��
2023/12/31,16:50,0.525,0.794,0.495,1.003,0.715,0.321,0.568,0.532,�k�k��,1.7,��
2023/12/31,17:00,0.524,0.793,0.497,1.002,0.716,0.320,0.569,0.531,�k��,1.5,�L
2023/12/31,17:10,0.528,0.794,0.499,1.002,0.716,0.321,0.570,0.531,-,CALM,�L
2023/12/31,17:20,0.531,0.797,0.501,1.007,0.719,0.323,0.569,0.532,�k��,2.0,�L
2023/12/31,17:30,0.531,0.798,0.504,1.009,0.719,0.324,0.571,0.532,���k��,0.8,�L
2023/12/31,17:40,0.534,0.799,0.505,1.010,0.723,0.328,0.571,0.532,-,CALM,�L
2023/12/31,17:50,0.535,0.797,0.506,1.014,0.724,0.331,0.572,0.533,-,CALM,�L
2023/12/31,18:00,0.536,0.794,0.507,1.011,0.724,0.334,0.570,0.535,��쐼,4.2,�L
2023/12/31,18:10,0.536,0.794,0.508,1.007,0.725,0.336,0.570,0.535,��쐼,3.9,�L
2023/12/31,18:20,0.535,0.792,0.507,1.008,0.723,0.338,0.570,0.535,��쐼,2.3,�L
2023/12/31,18:30,0.536,0.791,0.507,1.004,0.720,0.338,0.570,0.536,�쐼,2.0,�L
2023/12/31,18:40,0.532,0.788,0.506,1.003,0.719,0.336,0.570,0.535,��,3.1,�L
2023/12/31,18:50,0.532,0.788,0.505,1.002,0.716,0.336,0.568,0.534,���쐼,3.4,�L
2023/12/31,19:00,0.531,0.784,0.502,0.998,0.712,0.336,0.567,0.535,�쐼,2.0,�L
2023/12/31,19:10,0.531,0.784,0.507,0.995,0.712,0.336,0.566,0.534,���쐼,4.6,�L
2023/12/31,19:20,0.534,0.786,0.507,0.995,0.713,0.339,0.567,0.533,���쐼,3.4,�L
2023/12/31,19:30,0.531,0.782,0.507,0.990,0.713,0.339,0.566,0.533,���쐼,3.9,�L
2023/12/31,19:40,0.532,0.780,0.507,0.987,0.711,0.338,0.565,0.533,���쐼,5.6,�L
2023/12/31,19:50,0.530,0.781,0.506,0.988,0.711,0.338,0.565,0.531,��,4.7,�L
2023/12/31,20:00,0.529,0.780,0.503,0.986,0.708,0.336,0.566,0.531,��,3.7,�L
2023/12/31,20:10,0.528,0.779,0.503,0.984,0.707,0.335,0.565,0.532,��,4.4,�L
2023/12/31,20:20,0.525,0.778,0.500,0.981,0.705,0.332,0.565,0.529,��,2.9,�L
2023/12/31,20:30,0.524,0.775,0.498,0.980,0.705,0.332,0.564,0.530,�k��,4.1,�L
2023/12/31,20:40,0.522,0.775,0.496,0.978,0.703,0.331,0.564,0.531,�k��,4.8,�L
2023/12/31,20:50,0.522,0.773,0.496,0.975,0.701,0.330,0.564,0.528,�k��,5.1,�L
2023/12/31,21:00,0.519,0.769,0.494,0.973,0.699,0.328,0.562,0.529,�k��,4.9,�L
2023/12/31,21:10,0.520,0.771,0.493,0.970,0.698,0.326,0.562,0.528,���k��,4.8,�L
2023/12/31,21:20,0.519,0.768,0.492,0.971,0.696,0.327,0.559,0.527,���k��,5.3,�L
2023/12/31,21:30,0.517,0.768,0.492,0.968,0.695,0.325,0.559,0.527,���k��,5.4,�L
2023/12/31,21:40,0.516,0.768,0.492,0.970,0.694,0.325,0.559,0.526,���k��,5.9,�L
2023/12/31,21:50,0.517,0.767,0.492,0.969,0.695,0.326,0.561,0.527,���k��,6.5,�L
2023/12/31,22:00,0.515,0.769,0.493,0.969,0.696,0.327,0.560,0.526,���k��,6.7,�L
2023/12/31,22:10,0.519,0.768,0.493,0.970,0.698,0.326,0.563,0.526,�k��,5.2,�L
2023/12/31,22:20,0.514,0.768,0.493,0.970,0.697,0.325,0.562,0.526,�k��,6.0,�L
2023/12/31,22:30,0.516,0.766,0.491,0.969,0.694,0.324,0.561,0.525,�k��,6.5,�L
2023/12/31,22:40,0.514,0.764,0.489,0.966,0.691,0.322,0.558,0.524,�k��,7.9,��
2023/12/31,22:50,0.510,0.763,0.488,0.962,0.691,0.320,0.560,0.524,�k��,7.5,��
2023/12/31,23:00,0.509,0.761,0.487,0.963,0.688,0.319,0.559,0.522,�k��,7.7,��
2023/12/31,23:10,0.506,0.760,0.484,0.962,0.687,0.317,0.558,0.522,�k��,6.3,��
2023/12/31,23:20,0.506,0.759,0.482,0.960,0.687,0.316,0.558,0.523,�k��,6.7,��
2023/12/31,23:30,0.505,0.759,0.482,0.959,0.687,0.314,0.558,0.523,�k��,6.1,��
2023/12/31,23:40,0.506,0.759,0.482,0.959,0.684,0.313,0.558,0.522,�k��,5.8,��
2023/12/31,23:50,0.504,0.758,0.480,0.960,0.684,0.313,0.557,0.521,�k��,6.4,��
